Location: Antin
(43.3330°N, 0.2804°E)
Time: 23:21:10
(UTC+00:00)

Lacrosse 4 Rocket - Pass Details

Date: 16 October 2021
Orbit: 537 x 619 km, 68.0° (Epoch: 04 December)

Event Time Altitude Azimuth Distance (km) Brightness Sun altitude
Rises 20:09:21 0° 333° (NNW) 2,798 5.5 -32.3°
Reaches altitude 10° 20:11:35 10° 337° (NNW) 1,909 4.5 -32.7°
Enters shadow 20:12:12 14° 339° (NNW) 1,670 4.1 -32.8°
